Погода в Аэропорте

Россия / Республика Марий Эл     56°41′59″N   47°54′33″E
темп.,
°C
ветер,
м/с
пор.,
м/с
влажн.,
%
обл.,
%
осадки,
мм/ч
давл.,
гПа
погр.,
м
12 апреля, пн
пн1200:000св11100100 0.0 103549
03:00+1ссв3499100 0.0 1037129
06:00+2св27100100 0.0 1038189
09:00+3всв36100100 0.0 1039236
12:00+4всв36100100 0.0 1039208
15:00+4всв3699100 0.0 1039279
18:00+4в4898100 0.0 1039273
21:00+3в3898100 0.0 1039145
13 апреля, вт
вт1300:00+2вюв3119798 0.0 1038183
03:00+3юв3994100 0.0 1037176
06:00+3юв3895100 0.0 1036156
09:00+9ююв3788100 0.0 1035272
12:00+14ю477687 0.0 1033595
15:00+16ю466981 0.0 1032937
18:00+13ю368462 0.0 103190
21:00+9ю398854 0.0 1031143
14 апреля, ср
ср1400:00+8ю388941 0.0 1030117
03:00+6ююз34875 0.0 103054
06:00+6ю348664 0.0 103064
09:00+12ю355940 0.0 1029327
12:00+16ю45425 0.0 1028864
15:00+18ю45385 0.0 10261110
18:00+13ю34545 0.0 102550
21:00+9ю34675 0.0 102555
15 апреля, чт
чт1500:00+8ю34815 0.0 102446
03:00+7ю228812 0.0 102329
06:00+7ююз23875 0.0 102354
09:00+13ююз23635 0.0 1022366
12:00+17ююз34449 0.0 10201205
15:00+18юз23376 0.0 10181707
18:00+15зюз22525 0.0 101811
21:00+11зсз11635 0.0 101710
16 апреля, пт
пт1600:00+9зюз11661 0.0 101610
03:00+8з11727 0.0 101610
06:00+8зсз227521 0.0 101521
09:00+12ссз335970 0.0 1015461
12:00+14ссз5557100 0.0 10151110
15:00+4с81291100 0.2 1018667
18:00+6с4116974 0.3 10191548
21:00+4с512590 0.3 1020586